| time (UTC) | temp F | wind direction | speed knots | gust knots | rain 1hr in | rain 24hr in | rain mn in | humidity % | barometer mb |
| 20260507011606 | 56 | 164 | 0.0 | 2.6 | 0.00 | 0.00 | 0.00 | 50 | 1008.6 |
| 20260507011106 | 56 | 195 | 1.7 | 2.6 | 0.00 | 0.00 | 0.00 | 49 | 1008.4 |
| 20260507010106 | 56 | 133 | 1.7 | 2.6 | 0.00 | 0.00 | 0.00 | 48 | 1008.2 |
| 20260507005605 | 56 | 134 | 1.7 | 2.6 | 0.00 | 0.00 | 0.00 | 50 | 1008.6 |
| 20260507005106 | 56 | 190 | 1.7 | 4.3 | 0.00 | 0.00 | 0.00 | 50 | 1008.6 |
| 20260507004606 | 56 | 144 | 1.7 | 2.6 | 0.00 | 0.00 | 0.00 | 49 | 1008.5 |
| 20260507004106 | 56 | 158 | 1.7 | 2.6 | 0.00 | 0.00 | 0.00 | 49 | 1008.5 |
| 20260507003106 | 56 | 117 | 1.7 | 2.6 | 0.00 | 0.00 | 0.00 | 48 | 1008.7 |
| 20260507002606 | 56 | 134 | 1.7 | 2.6 | 0.00 | 0.00 | 0.00 | 49 | 1008.7 |
| 20260507002106 | 56 | 193 | 2.6 | 4.3 | 0.00 | 0.00 | 0.00 | 49 | 1008.9 |
| 20260507001609 | 57 | 190 | 2.6 | 4.3 | 0.00 | 0.00 | 0.00 | 48 | 1008.9 |
| 20260507001106 | 56 | 83 | 2.6 | 4.3 | 0.00 | 0.00 | 0.00 | 48 | 1009.0 |
| 20260507000608 | 56 | 100 | 2.6 | 4.3 | 0.00 | 0.00 | 0.00 | 48 | 1008.8 |
| 20260507000106 | 56 | 115 | 1.7 | 4.3 | 0.00 | 0.00 | 0.00 | 49 | 1009.0 |
| 20260506235606 | 56 | 177 | 3.5 | 5.2 | 0.00 | 0.00 | 0.00 | 49 | 1008.7 |
| 20260506235107 | 56 | 169 | 2.6 | 4.3 | 0.00 | 0.00 | 0.00 | 49 | 1009.0 |
| 20260506234606 | 56 | 194 | 2.6 | 4.3 | 0.00 | 0.00 | 0.00 | 49 | 1008.8 |
| 20260506234106 | 56 | 154 | 2.6 | 4.3 | 0.00 | 0.00 | 0.00 | 48 | 1009.0 |
| 20260506233606 | 57 | 195 | 1.7 | 5.2 | 0.00 | 0.00 | 0.00 | 48 | 1008.8 |
| 20260506232106 | 57 | 115 | 5.2 | 7.0 | 0.00 | 0.00 | 0.00 | 46 | 1008.7 |
| 20260506231606 | 58 | 116 | 4.3 | 7.8 | 0.00 | 0.00 | 0.00 | 46 | 1008.7 |
| 20260506231106 | 58 | 145 | 5.2 | 8.7 | 0.00 | 0.00 | 0.00 | 47 | 1009.1 |
| 20260506230605 | 58 | 134 | 4.3 | 7.8 | 0.00 | 0.00 | 0.00 | 47 | 1008.7 |
| 20260506225107 | 58 | 121 | 3.5 | 7.8 | 0.00 | 0.00 | 0.00 | 48 | 1008.8 |
| 20260506224605 | 58 | 135 | 5.2 | 11.3 | 0.00 | 0.00 | 0.00 | 48 | 1008.8 |
| 20260506224106 | 58 | 97 | 5.2 | 10.4 | 0.00 | 0.00 | 0.00 | 49 | 1008.5 |
| 20260506223607 | 58 | 120 | 5.2 | 13.0 | 0.00 | 0.00 | 0.00 | 50 | 1008.6 |
| 20260506222105 | 58 | 116 | 5.2 | 13.0 | 0.00 | 0.00 | 0.00 | 50 | 1008.6 |
| 20260506221605 | 58 | 117 | 6.1 | 14.8 | 0.00 | 0.00 | 0.00 | 51 | 1008.5 |
| 20260506221107 | 58 | 133 | 4.3 | 8.7 | 0.00 | 0.00 | 0.00 | 52 | 1008.5 |
| 20260506220606 | 58 | 121 | 6.1 | 12.2 | 0.00 | 0.00 | 0.00 | 52 | 1008.6 |
| 20260506215607 | 58 | 93 | 6.1 | 10.4 | 0.00 | 0.00 | 0.00 | 53 | 1008.7 |
| 20260506215106 | 58 | 103 | 5.2 | 10.4 | 0.00 | 0.00 | 0.00 | 54 | 1008.7 |
| 20260506214606 | 58 | 101 | 8.7 | 13.9 | 0.00 | 0.00 | 0.00 | 54 | 1008.6 |
| 20260506214106 | 58 | 104 | 7.0 | 13.0 | 0.00 | 0.00 | 0.00 | 53 | 1008.8 |
| 20260506212607 | 58 | 113 | 5.2 | 10.4 | 0.00 | 0.00 | 0.00 | 53 | 1008.8 |
| 20260506212106 | 58 | 109 | 5.2 | 13.0 | 0.00 | 0.00 | 0.00 | 52 | 1008.6 |
| 20260506211607 | 59 | 110 | 6.1 | 8.7 | 0.00 | 0.00 | 0.00 | 51 | 1008.6 |
| 20260506211106 | 59 | 123 | 5.2 | 10.4 | 0.00 | 0.00 | 0.00 | 50 | 1008.5 |
| 20260506205606 | 59 | 131 | 3.5 | 7.8 | 0.00 | 0.00 | 0.00 | 50 | 1008.4 |
| 20260506205106 | 59 | 121 | 5.2 | 7.8 | 0.00 | 0.00 | 0.00 | 49 | 1008.2 |
| 20260506204606 | 59 | 128 | 6.1 | 11.3 | 0.00 | 0.00 | 0.00 | 48 | 1008.3 |
| 20260506204106 | 60 | 144 | 5.2 | 7.8 | 0.00 | 0.00 | 0.00 | 49 | 1008.0 |
| 20260506203106 | 60 | 119 | 4.3 | 7.0 | 0.00 | 0.00 | 0.00 | 49 | 1008.0 |
| 20260506202606 | 60 | 136 | 4.3 | 6.1 | 0.00 | 0.00 | 0.00 | 48 | 1007.9 |
| 20260506202106 | 61 | 165 | 5.2 | 7.8 | 0.00 | 0.00 | 0.00 | 47 | 1007.7 |
| 20260506201106 | 60 | 132 | 4.3 | 7.0 | 0.00 | 0.00 | 0.00 | 47 | 1007.5 |
| 20260506200606 | 61 | 107 | 4.3 | 7.0 | 0.00 | 0.00 | 0.00 | 46 | 1007.4 |
| 20260506200106 | 61 | 149 | 4.3 | 6.1 | 0.00 | 0.00 | 0.00 | 46 | 1007.3 |
| 20260506195605 | 61 | 136 | 3.5 | 6.1 | 0.00 | 0.00 | 0.00 | 46 | 1007.3 |
| 20260506194606 | 61 | 157 | 1.7 | 5.2 | 0.00 | 0.00 | 0.00 | 47 | 1007.3 |
| 20260506194106 | 61 | 158 | 2.6 | 5.2 | 0.00 | 0.00 | 0.00 | 47 | 1007.3 |
| 20260506193106 | 61 | 149 | 1.7 | 6.1 | 0.00 | 0.00 | 0.00 | 46 | 1007.1 |
| 20260506192605 | 62 | 156 | 2.6 | 5.2 | 0.00 | 0.00 | 0.00 | 46 | 1007.0 |
| 20260506192107 | 62 | 168 | 1.7 | 4.3 | 0.00 | 0.00 | 0.00 | 46 | 1006.9 |
| 20260506191607 | 62 | 144 | 1.7 | 4.3 | 0.00 | 0.00 | 0.00 | 46 | 1006.7 |
| 20260506191107 | 62 | 173 | 1.7 | 2.6 | 0.00 | 0.00 | 0.00 | 46 | 1006.6 |
| 20260506190606 | 63 | 182 | 1.7 | 2.6 | 0.00 | 0.00 | 0.00 | 45 | 1006.5 |
| 20260506185605 | 64 | 189 | 3.5 | 5.2 | 0.00 | 0.00 | 0.00 | 44 | 1006.3 |
| 20260506185105 | 64 | 215 | 1.7 | 6.1 | 0.00 | 0.00 | 0.00 | 44 | 1006.2 |
| 20260506184605 | 65 | 188 | 3.5 | 6.1 | 0.00 | 0.00 | 0.00 | 43 | 1006.0 |
| 20260506184106 | 66 | 200 | 4.3 | 7.0 | 0.00 | 0.00 | 0.00 | 42 | 1005.7 |
| 20260506183106 | 66 | 200 | 4.3 | 8.7 | 0.00 | 0.00 | 0.00 | 41 | 1005.8 |
| 20260506182606 | 66 | 201 | 6.1 | 10.4 | 0.00 | 0.00 | 0.00 | 40 | 1005.8 |
| 20260506182105 | 67 | 210 | 6.1 | 10.4 | 0.00 | 0.00 | 0.00 | 40 | 1005.5 |
| 20260506181605 | 67 | 214 | 5.2 | 10.4 | 0.00 | 0.00 | 0.00 | 41 | 1005.6 |
| 20260506181105 | 67 | 226 | 4.3 | 8.7 | 0.00 | 0.00 | 0.00 | 41 | 1005.4 |
| 20260506180606 | 66 | 258 | 5.2 | 7.8 | 0.00 | 0.00 | 0.00 | 41 | 1005.8 |
| 20260506180106 | 66 | 267 | 3.5 | 6.1 | 0.00 | 0.00 | 0.00 | 39 | 1006.0 |
| 20260506175606 | 66 | 300 | 1.7 | 4.3 | 0.00 | 0.00 | 0.00 | 40 | 1006.0 |
| 20260506175105 | 65 | 317 | 2.6 | 5.2 | 0.00 | 0.00 | 0.00 | 40 | 1006.1 |
| 20260506174605 | 65 | 274 | 2.6 | 5.2 | 0.00 | 0.00 | 0.00 | 40 | 1006.0 |
| 20260506173607 | 65 | 268 | 2.6 | 5.2 | 0.00 | 0.00 | 0.00 | 39 | 1006.1 |
| 20260506173106 | 65 | 293 | 2.6 | 6.1 | 0.00 | 0.00 | 0.00 | 39 | 1006.0 |
| 20260506172607 | 66 | 303 | 4.3 | 6.1 | 0.00 | 0.00 | 0.00 | 38 | 1006.0 |
| 20260506172105 | 65 | 347 | 2.6 | 5.2 | 0.00 | 0.00 | 0.00 | 38 | 1005.9 |
| 20260506171606 | 65 | 23 | 4.3 | 8.7 | 0.00 | 0.00 | 0.00 | 39 | 1005.9 |
| 20260506171106 | 66 | 2 | 5.2 | 7.0 | 0.00 | 0.00 | 0.00 | 40 | 1006.1 |
| 20260506170604 | 66 | 9 | 2.6 | 7.0 | 0.00 | 0.00 | 0.00 | 39 | 1005.9 |
| 20260506170106 | 66 | 314 | 3.5 | 7.0 | 0.00 | 0.00 | 0.00 | 39 | 1006.0 |
| 20260506165606 | 66 | 287 | 3.5 | 6.1 | 0.00 | 0.00 | 0.00 | 37 | 1006.2 |
| 20260506165106 | 66 | 331 | 5.2 | 10.4 | 0.00 | 0.00 | 0.00 | 38 | 1006.1 |
| 20260506164606 | 66 | 251 | 5.2 | 7.8 | 0.00 | 0.00 | 0.00 | 37 | 1006.1 |
| 20260506164105 | 66 | 296 | 4.3 | 12.2 | 0.00 | 0.00 | 0.00 | 38 | 1006.0 |
| 20260506163605 | 66 | 243 | 7.0 | 11.3 | 0.00 | 0.00 | 0.00 | 38 | 1006.1 |
| 20260506163107 | 66 | 295 | 5.2 | 10.4 | 0.00 | 0.00 | 0.00 | 38 | 1006.0 |
| 20260506162605 | 67 | 352 | 4.3 | 7.8 | 0.00 | 0.00 | 0.00 | 38 | 1006.0 |
| 20260506162104 | 67 | 307 | 3.5 | 5.2 | 0.00 | 0.00 | 0.00 | 38 | 1005.9 |
| 20260506161606 | 67 | 306 | 3.5 | 7.8 | 0.00 | 0.00 | 0.00 | 37 | 1005.9 |
| 20260506161107 | 69 | 291 | 1.7 | 5.2 | 0.00 | 0.00 | 0.00 | 38 | 1005.5 |
| 20260506160606 | 68 | 264 | 5.2 | 11.3 | 0.00 | 0.00 | 0.00 | 37 | 1005.8 |
| 20260506160106 | 68 | 329 | 3.5 | 6.1 | 0.00 | 0.00 | 0.00 | 37 | 1005.6 |
| 20260506155605 | 67 | 284 | 4.3 | 7.8 | 0.00 | 0.00 | 0.00 | 39 | 1005.8 |
| 20260506155105 | 67 | 288 | 4.3 | 7.8 | 0.00 | 0.00 | 0.00 | 38 | 1005.8 |
| 20260506154606 | 67 | 306 | 5.2 | 10.4 | 0.00 | 0.00 | 0.00 | 38 | 1006.0 |
| 20260506153606 | 68 | 345 | 5.2 | 11.3 | 0.00 | 0.00 | 0.00 | 37 | 1005.8 |
| 20260506152606 | 66 | 289 | 4.3 | 11.3 | 0.00 | 0.00 | 0.00 | 38 | 1006.4 |
| 20260506152105 | 66 | 286 | 4.3 | 11.3 | 0.00 | 0.00 | 0.00 | 40 | 1006.3 |
| 20260506151606 | 66 | 306 | 6.1 | 11.3 | 0.00 | 0.00 | 0.00 | 38 | 1006.2 |
| 20260506151105 | 66 | 338 | 5.2 | 11.3 | 0.00 | 0.00 | 0.00 | 38 | 1006.4 |
| 20260506150605 | 67 | 331 | 4.3 | 10.4 | 0.00 | 0.00 | 0.00 | 38 | 1006.4 |
| 20260506150105 | 69 | 310 | 5.2 | 10.4 | 0.00 | 0.00 | 0.00 | 38 | 1006.0 |
| 20260506145605 | 68 | 295 | 3.5 | 13.0 | 0.00 | 0.00 | 0.00 | 38 | 1006.3 |
| 20260506145106 | 67 | 267 | 8.7 | 13.0 | 0.00 | 0.00 | 0.00 | 38 | 1006.4 |
| 20260506144106 | 67 | 245 | 7.8 | 11.3 | 0.00 | 0.00 | 0.00 | 38 | 1006.6 |
| 20260506143105 | 67 | 243 | 5.2 | 7.8 | 0.00 | 0.00 | 0.00 | 38 | 1006.6 |
| 20260506142607 | 68 | 298 | 5.2 | 11.3 | 0.00 | 0.00 | 0.00 | 37 | 1006.6 |
| 20260506142105 | 69 | 274 | 6.1 | 11.3 | 0.00 | 0.00 | 0.00 | 36 | 1006.3 |
| 20260506141605 | 67 | 265 | 5.2 | 11.3 | 0.00 | 0.00 | 0.00 | 37 | 1006.7 |
| 20260506141106 | 68 | 286 | 6.1 | 12.2 | 0.00 | 0.00 | 0.00 | 37 | 1006.7 |
| 20260506140605 | 68 | 325 | 5.2 | 11.3 | 0.00 | 0.00 | 0.00 | 38 | 1006.6 |
| 20260506140105 | 67 | 263 | 7.0 | 12.2 | 0.00 | 0.00 | 0.00 | 38 | 1006.8 |
| 20260506135105 | 68 | 245 | 5.2 | 11.3 | 0.00 | 0.00 | 0.00 | 38 | 1006.7 |
| 20260506134105 | 68 | 252 | 8.7 | 11.3 | 0.00 | 0.00 | 0.00 | 37 | 1006.7 |
| 20260506133605 | 67 | 11 | 5.2 | 10.4 | 0.00 | 0.00 | 0.00 | 37 | 1006.9 |
| 20260506132605 | 68 | 304 | 4.3 | 7.8 | 0.00 | 0.00 | 0.00 | 37 | 1006.7 |
| 20260506132105 | 68 | 282 | 3.5 | 5.2 | 0.00 | 0.00 | 0.00 | 37 | 1006.9 |
| 20260506131604 | 67 | 338 | 4.3 | 7.8 | 0.00 | 0.00 | 0.00 | 37 | 1007.1 |
| 20260506131105 | 68 | 299 | 6.1 | 11.3 | 0.00 | 0.00 | 0.00 | 37 | 1007.1 |
| 20260506130605 | 67 | 282 | 6.1 | 10.4 | 0.00 | 0.00 | 0.00 | 37 | 1007.3 |
| 20260506130106 | 67 | 334 | 5.2 | 10.4 | 0.00 | 0.00 | 0.00 | 37 | 1007.1 |
| 20260506125606 | 67 | 300 | 2.6 | 12.2 | 0.00 | 0.00 | 0.00 | 39 | 1007.1 |
| 20260506125105 | 66 | 302 | 4.3 | 10.4 | 0.00 | 0.00 | 0.00 | 38 | 1007.3 |
| 20260506124605 | 66 | 304 | 6.1 | 10.4 | 0.00 | 0.00 | 0.00 | 39 | 1007.4 |
| 20260506124105 | 65 | 280 | 6.1 | 11.3 | 0.00 | 0.00 | 0.00 | 39 | 1007.5 |
| 20260506123605 | 66 | 265 | 5.2 | 11.3 | 0.00 | 0.00 | 0.00 | 39 | 1007.4 |
| 20260506123105 | 66 | 291 | 4.3 | 11.3 | 0.00 | 0.00 | 0.00 | 38 | 1007.6 |
| 20260506122606 | 65 | 252 | 10.4 | 13.0 | 0.00 | 0.00 | 0.00 | 38 | 1007.8 |
| 20260506122105 | 66 | 268 | 5.2 | 7.8 | 0.00 | 0.00 | 0.00 | 38 | 1007.5 |
| 20260506121606 | 67 | 320 | 2.6 | 6.1 | 0.00 | 0.00 | 0.00 | 38 | 1007.4 |
| 20260506121105 | 67 | 190 | 2.6 | 6.1 | 0.00 | 0.00 | 0.00 | 36 | 1007.4 |
| 20260506120605 | 65 | 287 | 0.9 | 5.2 | 0.00 | 0.00 | 0.00 | 39 | 1007.5 |
| 20260506120106 | 66 | 50 | 3.5 | 7.0 | 0.00 | 0.00 | 0.00 | 37 | 1007.5 |
| 20260506115606 | 66 | 295 | 2.6 | 6.1 | 0.00 | 0.00 | 0.00 | 37 | 1007.6 |
| 20260506115105 | 66 | 267 | 2.6 | 7.8 | 0.00 | 0.00 | 0.00 | 38 | 1007.5 |
| 20260506113605 | 65 | 290 | 7.0 | 11.3 | 0.00 | 0.00 | 0.00 | 38 | 1008.3 |
| 20260506113105 | 65 | 294 | 6.1 | 11.3 | 0.00 | 0.00 | 0.00 | 38 | 1008.1 |
| 20260506112605 | 64 | 293 | 8.7 | 15.6 | 0.00 | 0.00 | 0.00 | 39 | 1008.1 |
| 20260506112105 | 64 | 350 | 5.2 | 8.7 | 0.00 | 0.00 | 0.00 | 39 | 1008.1 |
| 20260506110604 | 64 | 212 | 1.7 | 7.8 | 0.00 | 0.00 | 0.00 | 36 | 1008.3 |
| 20260506110106 | 64 | 7 | 5.2 | 8.7 | 0.00 | 0.00 | 0.00 | 37 | 1008.4 |
| 20260506105605 | 65 | 348 | 6.1 | 7.8 | 0.00 | 0.00 | 0.00 | 36 | 1008.3 |
| 20260506105106 | 63 | 18 | 3.5 | 7.8 | 0.00 | 0.00 | 0.00 | 37 | 1008.6 |
| 20260506104605 | 64 | 339 | 2.6 | 7.8 | 0.00 | 0.00 | 0.00 | 37 | 1008.3 |
| 20260506104105 | 63 | 350 | 2.6 | 8.7 | 0.00 | 0.00 | 0.00 | 37 | 1008.5 |
| 20260506103605 | 64 | 351 | 2.6 | 6.1 | 0.00 | 0.00 | 0.00 | 37 | 1008.6 |
| 20260506103105 | 63 | 330 | 5.2 | 8.7 | 0.00 | 0.00 | 0.00 | 37 | 1008.4 |
| 20260506102105 | 63 | 315 | 5.2 | 10.4 | 0.00 | 0.00 | 0.00 | 39 | 1009.0 |
| 20260506101605 | 62 | 284 | 2.6 | 8.7 | 0.00 | 0.00 | 0.00 | 38 | 1008.8 |
| 20260506101105 | 62 | 343 | 6.1 | 12.2 | 0.00 | 0.00 | 0.00 | 38 | 1008.8 |
| 20260506100605 | 63 | 2 | 6.1 | 10.4 | 0.00 | 0.00 | 0.00 | 37 | 1008.9 |
| 20260506100106 | 62 | 36 | 4.3 | 10.4 | 0.00 | 0.00 | 0.00 | 39 | 1009.2 |
| 20260506095604 | 62 | 19 | 6.1 | 10.4 | 0.00 | 0.00 | 0.00 | 38 | 1009.1 |
| 20260506095105 | 61 | 0 | 2.6 | 7.8 | 0.00 | 0.00 | 0.00 | 35 | 1009.4 |
| 20260506094606 | 62 | 30 | 6.1 | 11.3 | 0.00 | 0.00 | 0.00 | 39 | 1009.2 |
| 20260506094105 | 61 | 8 | 7.8 | 12.2 | 0.00 | 0.00 | 0.00 | 37 | 1009.2 |
| 20260506093604 | 62 | 5 | 7.0 | 11.3 | 0.00 | 0.00 | 0.00 | 38 | 1008.9 |
| 20260506093104 | 62 | 19 | 5.2 | 8.7 | 0.00 | 0.00 | 0.00 | 40 | 1009.3 |
| 20260506092604 | 62 | 313 | 5.2 | 10.4 | 0.00 | 0.00 | 0.00 | 37 | 1009.1 |
| 20260506090605 | 61 | 41 | 4.3 | 8.7 | 0.00 | 0.00 | 0.00 | 43 | 1009.2 |
| 20260506085106 | 60 | 287 | 4.3 | 10.4 | 0.00 | 0.00 | 0.00 | 45 | 1009.4 |
| 20260506084105 | 60 | 47 | 5.2 | 7.8 | 0.00 | 0.00 | 0.00 | 47 | 1009.3 |
| 20260506083605 | 60 | 298 | 2.6 | 5.2 | 0.00 | 0.00 | 0.00 | 55 | 1009.4 |
| 20260506083104 | 58 | 281 | 4.3 | 6.1 | 0.00 | 0.00 | 0.00 | 61 | 1009.6 |
| 20260506082604 | 58 | 253 | 3.5 | 6.1 | 0.00 | 0.00 | 0.00 | 60 | 1009.5 |
| 20260506082105 | 58 | 234 | 4.3 | 5.2 | 0.00 | 0.00 | 0.00 | 62 | 1009.8 |
| 20260506081605 | 59 | 222 | 2.6 | 4.3 | 0.00 | 0.00 | 0.00 | 60 | 1009.4 |
| 20260506081105 | 57 | 214 | 1.7 | 5.2 | 0.00 | 0.00 | 0.00 | 63 | 1009.7 |
| 20260506080106 | 56 | 242 | 3.5 | 4.3 | 0.00 | 0.00 | 0.00 | 66 | 1009.9 |
| 20260506072605 | 52 | 218 | 1.7 | 2.6 | 0.00 | 0.00 | 0.00 | 71 | 1010.8 |
| 20260506072105 | 52 | 208 | 0.9 | 2.6 | 0.00 | 0.00 | 0.00 | 72 | 1010.8 |
| 20260506071604 | 52 | 234 | 2.6 | 4.3 | 0.00 | 0.00 | 0.00 | 72 | 1010.8 |
| 20260506071105 | 51 | 240 | 0.9 | 2.6 | 0.00 | 0.00 | 0.00 | 72 | 1010.8 |
| 20260506070605 | 51 | 96 | 0.9 | 1.7 | 0.00 | 0.00 | 0.00 | 72 | 1010.9 |
| 20260506070104 | 51 | 306 | 0.0 | 2.6 | 0.00 | 0.00 | 0.00 | 73 | 1010.8 |
| 20260506062105 | 50 | 79 | 2.6 | 5.2 | 0.00 | 0.00 | 0.00 | 72 | 1011.1 |
| 20260506061605 | 49 | 27 | 1.7 | 2.6 | 0.00 | 0.00 | 0.00 | 72 | 1011.1 |
| 20260506061106 | 50 | 188 | 1.7 | 6.1 | 0.00 | 0.00 | 0.00 | 73 | 1010.9 |
| 20260506060606 | 50 | 191 | 0.9 | 4.3 | 0.00 | 0.00 | 0.00 | 72 | 1010.9 |
| 20260506060106 | 50 | 219 | 2.6 | 4.3 | 0.00 | 0.00 | 0.00 | 73 | 1010.8 |
| 20260506051106 | 50 | 353 | 1.7 | 2.6 | 0.00 | 0.00 | 0.00 | 73 | 1010.8 |
| 20260506050607 | 51 | 34 | 1.7 | 4.3 | 0.00 | 0.00 | 0.00 | 72 | 1010.6 |
| 20260506050107 | 51 | 10 | 2.6 | 4.3 | 0.00 | 0.00 | 0.00 | 72 | 1010.5 |
| 20260506045106 | 51 | 36 | 2.6 | 4.3 | 0.00 | 0.00 | 0.00 | 71 | 1010.6 |
| 20260506044607 | 51 | 48 | 3.5 | 5.2 | 0.00 | 0.00 | 0.00 | 71 | 1010.5 |
| 20260506043607 | 51 | 55 | 4.3 | 6.1 | 0.00 | 0.00 | 0.00 | 70 | 1010.7 |